Wind_Speed
2 2 2 2 2 2 2 3 3 3 3 4 4 5 5 5 5 5 5 5 5 5 5 5 6 6 6 6 6 6 6 6 6 7 6 6 6 6 6 6 6 6 6 7 8 7 7 7 7
2 2 2 2 2 3 3 3 3 4 4 4 5 6 5 5 6 6 7 6 6 6 6 7 7 7 7 7 7 7 7 7 7 8 8 8 8 8 8 8 7 7 7 8 9 9 8 8 8
2 2 2 2 2 3 3 4 4 4 5 5 6 7 7 7 6 7 8 8 8 7 8 8 8 8 8 8 7 7 7 8 9 9 9 9 9 9 9 9 9 8 8 9 9 9 9 8 8
2 2 2 2 3 3 4 4 5 6 6 6 7 8 8 8 8 8 8 9 9 9 8 8 9 9 9 9 8 8 8 8 9 9 10 10 9 9 9 10 9 9 10 10 10 10 10 9 8
3 3 4 4 4 5 5 6 6 7 7 7 8 9 9 8 9 9 9 9 9 10 10 9 9 9 9 9 9 9 9 9 10 10 10 10 10 10 10 10 10 11 11 10 10 10 10 9 8
4 4 4 4 5 5 6 7 8 8 8 8 9 9 9 9 9 9 10 9 10 11 10 9 10 10 10 10 10 10 10 10 10 11 11 11 11 11 11 11 11 11 11 10 11 11 10 10 8
5 5 5 5 6 6 7 8 8 8 9 9 9 9 10 10 10 10 10 10 10 10 10 9 10 10 10 10 10 10 11 11 11 11 11 11 11 11 12 12 12 12 11 11 11 11 11 10 9
6 6 5 6 7 7 8 8 8 9 9 9 9 10 10 9 10 10 10 10 10 10 10 10 10 10 10 10 10 11 11 11 11 11 11 11 11 12 11 12 11 11 11 11 11 10 10 10 10
6 6 6 7 8 8 8 8 8 9 9 9 9 10 10 10 10 10 10 10 10 10 10 9 9 10 10 10 10 10 11 11 11 11 11 11 11 11 11 11 10 10 10 10 10 10 9 9 10
7 7 8 8 8 8 8 9 9 9 9 9 9 10 11 10 10 10 10 10 10 10 10 9 9 9 10 10 10 10 10 10 10 10 10 10 11 11 11 10 9 10 9 9 9 9 9 9 9
8 8 9 9 9 9 10 10 10 10 10 10 10 10 11 11 11 11 11 10 9 10 10 10 9 10 10 10 10 10 10 10 10 10 10 10 10 10 10 9 10 10 9 9 9 9 9 9 8
9 9 9 10 10 11 11 11 11 11 11 11 11 11 12 12 11 11 11 11 10 10 10 10 10 10 10 10 11 10 9 9 9 9 9 9 10 10 9 9 9 9 9 9 9 9 9 9 8
10 10 10 11 11 11 11 11 11 11 12 11 11 12 12 12 12 12 12 12 11 11 11 10 10 11 11 11 10 10 9 10 9 9 9 9 9 9 8 8 9 9 9 8 8 8 8 8 8
11 11 11 12 11 11 11 11 11 11 12 12 12 12 12 12 12 12 12 12 12 11 11 10 10 11 11 11 10 9 9 9 9 9 9 9 9 9 8 8 8 8 9 8 8 8 8 7 7
12 12 12 12 12 11 11 11 11 12 12 12 12 12 12 12 12 12 12 12 11 11 10 10 11 11 11 11 10 10 9 9 9 9 9 8 8 8 8 8 7 7 8 8 7 7 7 6 6
13 13 13 12 12 12 13 12 12 12 12 12 13 12 12 12 12 12 12 12 12 11 10 10 11 11 10 10 9 9 9 10 9 9 8 8 8 8 7 7 7 6 6 7 7 6 6 5 5
12 13 13 14 13 14 14 13 13 13 13 13 13 13 13 13 12 12 12 12 12 11 10 10 10 10 10 10 9 9 9 9 9 9 8 8 8 7 7 7 6 5 5 6 6 5 5 4 4
13 13 14 15 15 15 14 13 13 14 13 13 13 13 13 13 13 12 12 12 12 11 11 10 11 10 10 10 10 9 9 9 9 9 8 7 7 7 7 6 6 5 5 5 5 5 4 4 4
14 14 15 16 15 16 16 15 13 13 14 14 14 15 14 13 13 13 13 13 12 12 12 11 11 11 11 10 9 9 9 9 9 9 8 8 7 6 6 6 6 6 5 5 5 5 4 4 4
15 16 16 16 16 16 17 16 14 14 15 14 14 14 14 14 13 13 13 13 13 12 12 13 12 12 11 10 9 9 9 10 9 8 8 8 7 7 6 7 6 6 6 5 5 5 4 4 4
16 17 17 17 17 17 17 17 16 15 15 15 14 14 14 14 14 14 14 13 12 12 12 13 13 11 11 10 10 10 10 9 9 8 7 6 6 6 6 6 6 5 5 6 5 5 4 4 3
18 17 17 18 17 16 17 18 17 16 16 16 16 15 14 14 14 14 14 13 12 12 12 12 11 10 10 10 10 10 9 9 8 8 8 6 5 6 6 5 6 6 6 6 6 5 4 4 3
18 17 18 17 17 17 17 19 18 17 16 17 16 16 15 15 15 15 14 13 12 12 12 12 11 11 10 10 10 10 9 9 8 8 7 7 6 6 6 6 6 6 6 6 6 6 5 4 4
19 18 17 17 17 18 17 19 19 17 17 17 17 16 15 15 15 15 14 13 12 12 12 12 11 11 11 10 9 9 9 8 8 8 7 7 7 6 6 6 6 6 6 7 7 6 6 6 5
19 18 17 17 17 18 18 20 20 17 18 17 17 16 15 15 15 14 14 14 13 12 12 11 11 10 10 9 8 8 8 7 7 7 7 7 7 6 6 6 6 6 6 7 7 7 6 6 6
19 19 18 17 18 20 20 20 19 18 18 17 17 16 15 15 14 14 14 13 13 12 12 11 11 10 10 9 8 8 7 6 6 5 6 6 6 7 6 6 6 5 6 6 6 6 6 6 6
20 20 19 19 19 20 21 21 20 18 17 17 17 17 16 15 15 14 14 13 12 12 12 11 11 10 10 9 9 8 8 7 7 6 6 6 6 6 6 6 5 5 6 6 6 6 6 6 6
21 20 20 20 20 20 20 21 20 17 18 18 17 17 16 16 15 15 13 12 12 12 12 11 11 11 10 10 10 10 9 8 8 7 7 7 6 7 7 7 7 6 6 6 6 6 6 6 6
21 21 21 21 21 20 20 21 20 19 19 20 18 17 16 16 15 15 14 13 12 12 12 12 11 11 10 10 10 10 10 9 8 8 7 7 7 8 8 7 7 7 7 7 7 7 7 6 6
22 22 23 23 22 22 21 22 20 19 20 21 19 18 17 16 15 15 14 13 12 12 12 11 11 11 11 10 10 10 10 9 9 9 8 8 7 8 8 8 8 8 8 8 7 7 7 7 7
Wind_Direction
56 44 36 35 25 14 10 354 345 336 331 327 320 318 316 314 306 305 305 298 295 295 294 293 294 294 291 286 282 273 269 267 268 271 272 270 269 265 267 271 271 259 258 261 260 258 260 264 267
43 17 7 1 344 5 348 341 343 334 322 320 316 313 313 309 304 300 301 299 298 294 291 291 294 296 293 288 285 281 279 276 274 274 275 276 274 269 271 275 274 272 269 266 263 261 261 263 263
18 360 359 337 346 344 330 329 332 327 320 312 313 311 309 308 303 300 299 296 294 292 291 291 292 294 294 292 288 285 282 277 275 275 275 277 277 275 274 276 272 273 270 269 268 265 261 263 266
342 340 325 325 336 328 324 319 323 322 316 313 311 309 306 305 301 300 299 295 292 290 290 289 288 291 293 291 287 284 281 282 277 275 274 276 279 276 276 275 273 274 273 272 271 267 264 264 267
321 314 307 321 324 325 317 314 313 314 312 312 312 311 306 305 302 301 300 296 294 292 288 286 286 289 293 293 288 285 283 283 281 278 276 278 281 279 274 275 276 278 277 275 272 270 265 261 267
306 306 303 315 316 321 317 314 313 311 309 310 310 312 308 305 302 302 301 299 296 292 287 286 288 290 291 291 290 288 284 283 282 279 278 279 280 279 275 276 277 277 277 278 276 273 268 266 269
294 297 308 307 308 313 314 314 313 313 312 312 313 315 313 309 301 299 299 301 299 294 287 287 291 293 293 292 290 288 282 279 280 280 282 283 283 280 277 275 275 273 272 275 276 271 268 269 270
287 292 297 298 307 311 312 311 311 313 313 314 314 317 318 315 306 303 302 301 300 297 289 290 295 294 293 292 291 289 285 281 281 281 280 284 287 283 279 277 275 271 271 273 272 269 268 264 268
282 286 290 298 306 309 311 311 312 312 311 311 313 316 318 315 308 304 305 302 301 301 295 295 295 295 294 291 291 290 288 287 285 285 281 284 286 284 282 279 277 272 270 269 266 265 268 264 263
278 282 286 295 301 303 305 306 308 310 310 311 310 312 315 313 308 303 305 304 302 303 299 298 299 297 296 294 293 292 290 289 289 287 286 286 286 284 282 278 274 270 267 262 258 262 267 264 263
275 280 285 292 294 295 299 299 301 305 309 312 310 308 306 308 307 306 306 306 304 303 302 301 301 301 299 298 296 293 288 288 289 289 288 287 289 285 280 275 272 268 263 258 256 258 262 260 260
276 277 280 285 289 291 293 295 299 302 305 308 309 309 308 309 307 307 307 305 302 303 303 302 301 303 301 299 297 293 287 288 290 290 287 287 288 285 280 272 270 269 261 258 259 260 263 258 261
277 277 278 281 286 288 290 292 296 300 303 305 306 307 310 307 306 303 305 308 305 301 300 299 300 301 300 298 296 293 291 292 291 289 284 283 286 284 281 276 271 268 263 259 258 258 261 258 257
275 276 280 282 285 286 288 291 295 301 301 300 302 305 308 311 309 307 305 306 305 300 297 297 297 299 299 296 293 292 294 297 294 287 282 282 282 280 277 276 276 268 264 261 258 257 261 260 258
274 274 276 280 283 286 286 288 290 298 300 299 301 305 307 308 308 309 308 308 308 302 298 298 296 298 297 294 292 291 293 294 294 288 284 284 280 277 272 274 277 270 259 256 253 254 256 256 258
274 277 279 280 281 284 286 292 294 294 297 298 301 304 307 306 307 309 311 310 308 301 298 300 299 298 297 296 294 293 295 295 293 289 287 282 279 273 273 271 273 270 258 250 248 246 245 249 254
275 281 282 281 278 282 284 290 292 293 293 296 299 302 305 306 306 308 310 310 310 305 304 302 301 299 298 296 292 292 294 296 294 290 287 284 277 270 268 268 269 266 255 247 244 239 237 242 252
277 275 277 280 281 281 280 286 290 291 292 294 297 301 302 303 305 305 305 306 307 306 307 306 303 301 300 298 293 289 291 294 295 292 287 284 275 267 267 262 260 257 252 245 236 228 226 233 248
270 270 271 274 278 280 281 283 285 286 291 292 293 297 301 301 301 304 304 302 301 303 304 305 302 301 300 298 294 290 290 291 292 292 286 279 273 264 261 257 253 251 249 237 230 221 222 237 249
267 266 268 271 273 278 280 280 279 280 284 288 291 296 299 300 301 302 303 301 301 301 305 303 300 296 296 294 292 290 288 287 286 287 283 277 272 265 262 258 253 248 238 232 221 222 230 245 245
265 265 264 269 274 275 276 277 278 279 280 286 291 295 295 298 300 301 303 301 299 300 301 306 301 295 293 292 292 291 289 285 283 280 279 274 261 255 256 254 249 238 232 228 220 223 231 233 239
265 264 264 265 269 272 275 276 276 278 279 286 291 294 296 297 298 299 299 300 299 299 300 302 300 297 293 289 288 288 290 287 280 275 273 263 254 247 249 246 241 234 226 221 219 223 226 236 243
265 265 264 264 266 269 271 275 277 280 281 285 288 292 294 293 295 296 297 298 298 298 299 300 297 296 295 290 286 282 284 284 276 272 266 256 254 248 246 245 239 235 227 222 221 221 228 238 243
264 262 260 261 264 266 269 273 275 277 282 285 286 290 293 292 293 294 295 297 297 298 297 297 296 294 291 287 286 282 282 282 273 267 264 256 249 247 247 245 239 239 233 228 225 226 233 239 243
259 259 259 259 262 266 270 270 274 278 280 283 286 290 292 292 291 291 293 293 294 295 295 295 295 293 288 283 281 283 281 280 275 267 255 250 244 240 241 240 243 245 231 224 226 232 237 242 243
257 255 254 254 257 260 264 267 274 278 279 281 284 287 290 289 288 289 292 292 292 293 293 291 291 290 285 279 276 279 276 275 276 267 252 245 238 239 243 242 241 238 229 223 225 229 236 240 247
256 253 253 252 255 257 261 268 271 275 278 279 280 283 288 288 288 288 290 290 289 290 291 289 286 287 283 278 275 273 271 269 267 261 249 243 240 240 240 241 236 236 232 228 230 236 241 243 249
255 254 250 248 250 251 257 263 267 272 275 277 276 280 284 285 286 285 286 288 287 286 285 285 284 284 281 275 270 267 270 267 260 256 249 248 237 236 237 239 235 235 235 234 236 240 238 241 250
254 250 249 250 249 248 252 258 264 267 271 275 278 280 281 282 282 284 284 285 284 283 280 278 279 281 279 276 269 266 266 265 259 256 250 244 240 240 241 243 237 237 237 240 237 237 237 243 249
256 252 248 249 248 247 250 256 261 264 267 271 274 276 276 278 279 280 281 283 283 283 278 276 274 278 280 275 270 265 265 266 260 252 253 245 238 239 241 242 242 239 238 238 239 241 242 248 249
Height
5880 5880 5880 5881 5882 5881 5880 5880 5880 5880 5880 5879 5879 5879 5878 5879 5879 5881 5879 5878 5878 5877 5877 5877 5877 5877 5876 5876 5876 5876 5876 5875 5876 5876 5876 5876 5876 5876 5876 5876 5876 5877 5877 5877 5877 5877 5877 5878 5878
5880 5881 5881 5881 5881 5880 5880 5880 5880 5880 5879 5879 5879 5879 5878 5878 5878 5878 5877 5877 5877 5877 5876 5876 5876 5875 5875 5875 5875 5874 5874 5874 5874 5874 5874 5875 5875 5875 5875 5875 5875 5875 5876 5876 5876 5876 5876 5876 5876
5881 5881 5881 5881 5880 5880 5880 5880 5880 5880 5879 5879 5879 5879 5878 5878 5878 5877 5876 5876 5876 5876 5875 5875 5875 5874 5874 5873 5873 5873 5873 5873 5873 5873 5873 5873 5873 5873 5873 5873 5874 5874 5874 5874 5874 5874 5874 5874 5874
5881 5882 5882 5881 5880 5880 5880 5880 5879 5879 5879 5878 5878 5878 5877 5877 5876 5876 5875 5875 5875 5875 5874 5874 5873 5873 5872 5872 5872 5871 5871 5871 5871 5871 5871 5871 5871 5872 5872 5872 5872 5872 5872 5872 5872 5873 5873 5873 5872
5881 5881 5881 5880 5879 5879 5879 5879 5879 5878 5878 5878 5877 5877 5876 5876 5875 5874 5874 5873 5873 5873 5873 5872 5872 5872 5871 5871 5870 5870 5870 5869 5869 5869 5869 5869 5869 5870 5870 5870 5870 5870 5870 5870 5870 5871 5871 5871 5870
5881 5881 5881 5879 5879 5879 5879 5878 5878 5878 5877 5876 5876 5876 5875 5874 5874 5873 5872 5872 5872 5871 5871 5870 5870 5870 5869 5869 5869 5868 5868 5868 5867 5867 5867 5867 5867 5868 5868 5868 5868 5868 5868 5868 5868 5869 5869 5869 5869
5881 5880 5879 5879 5879 5878 5878 5877 5877 5877 5876 5875 5875 5874 5874 5873 5872 5871 5871 5870 5870 5869 5869 5869 5868 5868 5867 5867 5867 5866 5866 5866 5865 5865 5865 5865 5865 5865 5865 5865 5865 5866 5866 5866 5866 5866 5867 5867 5867
5879 5880 5879 5878 5878 5878 5877 5877 5876 5876 5875 5874 5874 5873 5873 5872 5871 5870 5869 5869 5868 5868 5867 5867 5867 5866 5866 5865 5865 5864 5864 5863 5863 5863 5863 5863 5863 5863 5863 5863 5863 5863 5864 5864 5864 5864 5865 5865 5865
5878 5880 5878 5878 5877 5877 5876 5876 5875 5875 5874 5873 5872 5872 5871 5870 5869 5868 5868 5867 5866 5866 5865 5865 5865 5864 5864 5863 5862 5862 5862 5861 5861 5861 5861 5861 5861 5860 5860 5860 5860 5861 5861 5862 5862 5863 5863 5863 5864
5877 5878 5877 5876 5876 5876 5875 5875 5874 5874 5873 5872 5871 5871 5870 5869 5868 5867 5866 5865 5865 5864 5864 5863 5863 5862 5862 5861 5860 5860 5860 5859 5858 5858 5858 5859 5859 5858 5858 5858 5859 5859 5859 5860 5860 5861 5861 5862 5862
5876 5876 5876 5875 5875 5875 5874 5874 5873 5872 5872 5871 5870 5869 5868 5867 5866 5866 5865 5864 5863 5862 5862 5861 5861 5860 5860 5859 5859 5858 5858 5857 5857 5856 5856 5856 5856 5856 5856 5857 5857 5857 5857 5858 5859 5859 5859 5860 5861
5874 5875 5874 5874 5874 5873 5873 5872 5872 5871 5871 5870 5869 5868 5867 5866 5865 5864 5863 5862 5861 5861 5860 5859 5859 5858 5858 5857 5857 5856 5856 5855 5855 5854 5855 5855 5855 5855 5855 5855 5855 5855 5856 5856 5857 5858 5858 5858 5859
5873 5873 5872 5872 5872 5872 5871 5871 5870 5869 5869 5868 5867 5866 5865 5864 5863 5862 5861 5860 5860 5859 5858 5858 5857 5857 5856 5855 5855 5854 5854 5853 5853 5853 5853 5853 5853 5853 5853 5853 5853 5853 5854 5854 5855 5856 5857 5857 5858
5871 5871 5871 5870 5870 5870 5869 5869 5869 5868 5867 5866 5866 5865 5864 5862 5861 5861 5860 5859 5858 5857 5856 5855 5855 5855 5854 5853 5853 5852 5852 5852 5851 5851 5851 5851 5851 5851 5851 5852 5852 5852 5852 5853 5853 5854 5855 5856 5856
5868 5869 5869 5868 5868 5867 5868 5868 5867 5866 5865 5865 5864 5863 5862 5861 5860 5859 5858 5857 5856 5855 5854 5854 5853 5853 5852 5851 5851 5851 5850 5850 5849 5849 5849 5849 5849 5849 5850 5850 5850 5850 5850 5851 5852 5853 5854 5854 5855
5866 5866 5866 5866 5866 5865 5867 5866 5865 5864 5863 5863 5862 5861 5860 5859 5858 5857 5856 5856 5855 5854 5853 5852 5852 5851 5850 5849 5849 5849 5849 5848 5848 5847 5847 5847 5847 5848 5848 5849 5849 5849 5849 5850 5851 5852 5852 5853 5854
5863 5863 5863 5864 5863 5863 5863 5863 5863 5862 5861 5861 5860 5859 5858 5858 5857 5856 5855 5854 5853 5852 5851 5850 5850 5849 5848 5848 5847 5847 5847 5846 5846 5846 5846 5846 5846 5846 5847 5847 5847 5847 5848 5849 5849 5850 5851 5852 5852
5861 5861 5861 5861 5860 5860 5860 5861 5860 5859 5859 5859 5858 5857 5857 5856 5855 5854 5853 5852 5852 5851 5849 5849 5848 5847 5847 5846 5846 5845 5845 5845 5844 5844 5844 5844 5844 5845 5845 5846 5846 5846 5847 5848 5848 5849 5850 5851 5852
5858 5858 5858 5858 5858 5857 5857 5858 5858 5857 5857 5856 5856 5855 5855 5854 5853 5852 5851 5851 5850 5849 5848 5847 5846 5845 5845 5844 5844 5844 5843 5843 5843 5843 5842 5842 5843 5843 5844 5845 5845 5845 5846 5847 5847 5848 5849 5850 5851
5854 5855 5855 5855 5855 5854 5854 5854 5855 5855 5854 5854 5853 5853 5852 5851 5851 5850 5850 5849 5848 5847 5846 5845 5844 5844 5843 5843 5842 5842 5842 5841 5841 5841 5841 5841 5841 5842 5843 5844 5844 5844 5845 5846 5847 5848 5848 5849 5850
5850 5851 5851 5852 5851 5851 5851 5851 5851 5851 5851 5851 5851 5851 5850 5849 5849 5848 5847 5846 5846 5845 5844 5843 5842 5841 5841 5841 5840 5840 5840 5840 5840 5840 5840 5840 5840 5841 5842 5842 5843 5844 5844 5845 5846 5847 5848 5849 5849
5846 5847 5847 5848 5848 5848 5848 5847 5848 5848 5848 5848 5848 5848 5847 5847 5846 5846 5845 5844 5843 5843 5842 5841 5840 5839 5839 5838 5838 5838 5838 5838 5838 5838 5838 5838 5839 5840 5840 5841 5842 5843 5844 5845 5846 5846 5847 5848 5849
5842 5843 5844 5844 5844 5844 5844 5844 5845 5845 5845 5845 5845 5845 5845 5844 5844 5843 5842 5841 5841 5840 5839 5839 5838 5837 5837 5836 5836 5836 5836 5836 5836 5836 5837 5837 5838 5838 5839 5840 5841 5842 5843 5844 5845 5846 5847 5847 5848
5838 5839 5839 5839 5839 5840 5841 5841 5841 5842 5842 5842 5842 5842 5842 5841 5841 5840 5839 5838 5838 5837 5837 5836 5836 5835 5835 5834 5834 5834 5834 5834 5834 5835 5835 5836 5837 5837 5838 5839 5840 5841 5842 5843 5844 5845 5846 5847 5847
5834 5835 5835 5835 5835 5836 5838 5837 5838 5839 5839 5839 5839 5839 5839 5838 5838 5837 5836 5836 5835 5835 5834 5834 5833 5833 5833 5832 5832 5832 5832 5833 5833 5833 5834 5834 5835 5836 5837 5838 5839 5840 5840 5841 5843 5844 5845 5846 5847
5829 5830 5831 5832 5833 5833 5834 5833 5835 5836 5835 5836 5836 5836 5835 5835 5834 5834 5833 5833 5832 5832 5832 5831 5831 5831 5831 5830 5830 5831 5831 5831 5831 5832 5832 5833 5834 5835 5836 5837 5837 5838 5839 5841 5842 5843 5844 5845 5845
5823 5824 5826 5828 5828 5829 5829 5830 5831 5832 5832 5832 5832 5832 5832 5831 5831 5831 5830 5830 5830 5829 5829 5829 5828 5828 5828 5828 5828 5828 5829 5829 5830 5830 5831 5832 5832 5833 5834 5835 5836 5837 5838 5840 5841 5842 5843 5843 5844
5819 5820 5821 5822 5823 5824 5826 5826 5827 5828 5828 5828 5828 5828 5828 5828 5828 5827 5827 5827 5827 5827 5827 5826 5826 5826 5826 5826 5826 5826 5826 5827 5828 5829 5829 5830 5831 5832 5833 5834 5835 5836 5837 5838 5840 5841 5841 5842 5843
5813 5815 5815 5817 5818 5820 5821 5824 5823 5824 5824 5824 5824 5825 5825 5825 5824 5824 5824 5824 5824 5824 5824 5824 5824 5824 5824 5824 5824 5824 5825 5825 5826 5827 5828 5828 5829 5831 5832 5833 5834 5835 5836 5837 5838 5839 5840 5841 5842
5807 5808 5810 5812 5813 5814 5815 5820 5819 5819 5820 5820 5820 5821 5821 5821 5821 5821 5821 5821 5821 5821 5821 5821 5821 5821 5821 5821 5822 5822 5823 5823 5824 5825 5826 5827 5828 5829 5830 5831 5832 5834 5835 5836 5837 5838 5839 5840 5840